GW1990 Weather Reports


time (UTC)temp
C
wind
direction
speed
KPH
gust
KPH
rain 1hr
cm
rain 24hr
cm
rain mn
cm
humidity
%
barometer
mb
20260505153355 13 61 0.0 0.0 0.00 0.76 0.76 83 994.8
20260505152852 12 72 0.0 1.6 0.00 0.76 0.76 84 994.5
20260505152349 12 58 0.0 1.6 0.00 0.76 0.76 85 994.2
20260505151843 12 66 0.0 0.0 0.00 0.76 0.76 87 994.0
20260505151340 12 47 0.0 1.6 0.00 0.76 0.76 88 993.9
20260505150831 11 37 1.6 1.6 0.00 0.76 0.76 89 994.0
20260505150328 12 48 1.6 3.2 0.00 0.76 0.76 91 993.9
20260505140253 10 9 1.6 1.6 0.13 0.69 0.69 96 994.8
20260505130217 11 38 4.8 4.8 0.30 0.64 0.64 95 994.0
20260505124707 11 6 3.2 4.8 0.00 0.56 0.56 96 994.2
20260505124204 11 351 3.2 4.8 0.00 0.56 0.56 97 994.2
20260505123659 11 6 4.8 8.0 0.00 0.56 0.56 98 993.9
20260505123156 11 45 3.2 3.2 0.00 0.56 0.56 98 993.9
20260505122653 11 42 1.6 1.6 0.00 0.56 0.56 99 993.5
20260505122150 11 13 1.6 3.2 0.00 0.56 0.56 99 993.5
20260505121647 11 43 1.6 1.6 0.00 0.56 0.56 99 993.5
20260505121143 11 59 1.6 3.2 0.00 0.56 0.56 99 993.4
20260505120639 11 44 0.0 1.6 0.00 0.56 0.56 99 993.2
20260505120136 11 51 0.0 0.0 0.00 0.56 0.56 99 993.0
20260505115629 11 52 1.6 1.6 0.00 0.56 0.56 99 993.2
20260505115127 12 53 1.6 1.6 0.00 0.56 0.56 99 993.0
20260505114624 12 50 0.0 1.6 0.00 0.56 0.56 99 992.9
20260505114120 12 48 0.0 0.0 0.00 0.56 0.56 99 992.6
20260505113617 12 48 0.0 0.0 0.00 0.56 0.56 99 992.8
20260505113114 12 33 0.0 1.6 0.00 0.56 0.56 99 992.6
20260505112610 12 45 1.6 1.6 0.00 0.56 0.56 99 992.8
20260505112108 12 29 3.2 4.8 0.00 0.56 0.56 99 992.7
20260505111602 12 35 1.6 3.2 0.00 0.56 0.56 99 992.7
20260505111058 12 36 1.6 1.6 0.18 0.56 0.56 99 993.1
20260505110554 12 23 3.2 4.8 0.18 0.56 0.56 99 992.8
20260505102027 15 31 3.2 3.2 0.00 0.48 0.48 99 992.4
20260505101526 15 326 4.8 4.8 0.00 0.48 0.48 99 992.4
20260505101022 15 37 1.6 1.6 0.00 0.48 0.48 99 992.1
20260505100519 15 58 0.0 0.0 0.00 0.48 0.48 99 992.2
20260505100016 15 64 0.0 0.0 0.00 0.48 0.48 99 992.0
20260505095511 15 57 0.0 0.0 0.00 0.48 0.48 99 991.7
20260505095008 15 35 0.0 1.6 0.00 0.48 0.48 99 991.7
20260505094504 15 49 0.0 0.0 0.00 0.48 0.48 99 991.5
20260505094001 15 43 0.0 0.0 0.00 0.48 0.48 99 991.5
20260505093457 15 92 0.0 0.0 0.00 0.48 0.48 99 991.7
20260505092955 15 37 0.0 1.6 0.18 0.48 0.48 99 991.6
20260505092452 15 57 0.0 0.0 0.30 0.48 0.48 99 991.4
20260505091950 15 79 1.6 1.6 0.61 0.48 0.48 99 991.1
20260505091447 15 70 0.0 0.0 0.30 0.43 0.43 99 991.1
20260505090945 15 87 0.0 1.6 0.00 0.38 0.38 99 991.5
20260505090443 15 68 0.0 0.0 0.00 0.38 0.38 99 991.3
20260505085940 15 81 1.6 1.6 0.00 0.38 0.38 99 991.1
20260505085438 15 74 0.0 1.6 0.00 0.38 0.38 99 991.1
20260505084936 15 63 1.6 1.6 0.00 0.38 0.38 99 991.0
20260505084434 15 80 1.6 1.6 0.00 0.38 0.38 99 991.1
20260505083931 15 78 0.0 1.6 0.00 0.38 0.38 99 991.1
20260505083429 15 79 1.6 1.6 0.00 0.38 0.38 99 991.0
20260505082925 15 84 1.6 3.2 0.00 0.38 0.38 98 991.2
20260505082420 15 78 0.0 0.0 0.00 0.38 0.38 98 991.0
20260505081918 15 64 0.0 0.0 0.00 0.38 0.38 98 991.4
20260505081415 15 70 0.0 0.0 0.00 0.38 0.38 98 991.0
20260505080911 15 79 1.6 1.6 0.00 0.38 0.38 98 990.8
20260505080407 15 77 1.6 1.6 0.00 0.38 0.38 97 991.2
20260505075903 15 79 1.6 1.6 0.00 0.38 0.38 97 991.1
20260505075400 15 73 0.0 0.0 0.00 0.38 0.38 97 991.2
20260505074857 15 71 0.0 1.6 0.00 0.38 0.38 96 991.1
20260505074354 15 69 0.0 0.0 0.30 0.38 0.38 96 991.7
20260505073851 15 64 0.0 0.0 0.48 0.38 0.38 95 991.8
20260505073349 15 60 0.0 0.0 0.43 0.36 0.36 94 992.3
20260505072846 15 58 0.0 0.0 1.07 0.30 0.30 93 992.6
20260505072342 16 43 1.6 1.6 1.68 0.28 0.28 91 992.6
20260505071838 16 330 4.8 8.0 1.02 0.18 0.18 87 993.2
20260505071335 18 304 9.7 12.9 0.13 0.03 0.03 77 993.2
20260505070833 20 345 9.7 14.5 0.00 0.00 0.00 72 993.1
20260505070329 20 312 3.2 4.8 0.00 0.00 0.00 72 992.6
20260505065824 20 320 3.2 8.0 0.00 0.00 0.00 72 992.1
20260505065322 20 3 4.8 12.9 0.00 0.00 0.00 73 991.7
20260505064819 20 17 8.0 12.9 0.00 0.00 0.00 74 992.0
20260505064315 20 318 1.6 1.6 0.00 0.00 0.00 73 990.6
20260505063814 20 246 4.8 9.7 0.00 0.00 0.00 72 990.5
20260505063309 20 270 4.8 8.0 0.00 0.00 0.00 74 990.3
20260505062806 20 226 4.8 4.8 0.00 0.00 0.00 75 990.0
20260505062304 20 126 6.4 9.7 0.00 0.00 0.00 73 989.6
20260505061800 20 282 4.8 9.7 0.00 0.00 0.00 73 989.7
20260505061259 20 215 4.8 4.8 0.00 0.00 0.00 73 989.5
20260505060756 20 251 3.2 4.8 0.00 0.00 0.00 72 989.5
20260505060253 20 127 3.2 3.2 0.00 0.00 0.00 71 989.4
20260505055748 20 135 4.8 4.8 0.00 0.00 0.00 70 989.6
20260505055245 20 254 4.8 8.0 0.00 0.00 0.00 71 989.3
20260505054742 20 239 4.8 4.8 0.00 0.00 0.00 72 989.4
20260505054239 20 304 1.6 3.2 0.00 0.00 0.00 70 989.5
20260505053737 20 99 4.8 9.7 0.00 0.00 0.00 70 989.7
20260505053228 20 54 3.2 8.0 0.00 0.00 0.00 70 989.6
20260505052726 20 242 4.8 8.0 0.00 0.00 0.00 71 989.6
20260505052222 20 86 1.6 3.2 0.00 0.00 0.00 71 989.7
20260505051719 20 93 4.8 4.8 0.00 0.00 0.00 72 989.6
20260505051217 20 86 3.2 3.2 0.00 0.00 0.00 72 989.5
20260505050715 20 99 0.0 1.6 0.00 0.00 0.00 71 989.5
20260505050213 20 140 4.8 4.8 0.00 0.00 0.00 71 989.3
20260505041642 20 94 1.6 3.2 0.00 0.86 0.86 71 988.9
20260505041140 20 231 6.4 8.0 0.00 0.86 0.86 70 988.9
20260505040637 20 192 4.8 4.8 0.00 0.86 0.86 70 988.9
20260505040134 20 126 3.2 8.0 0.00 0.86 0.86 70 989.1
20260505035630 20 73 1.6 1.6 0.00 0.86 0.86 70 989.1
20260505035126 20 157 3.2 4.8 0.00 0.86 0.86 70 989.1
20260505034623 21 288 6.4 9.7 0.00 0.86 0.86 70 989.0
20260505034120 20 251 4.8 4.8 0.00 0.86 0.86 71 989.0
20260505033617 21 17 1.6 4.8 0.00 0.86 0.86 70 989.1
20260505033116 20 193 3.2 3.2 0.00 0.86 0.86 70 989.2
20260505032613 20 17 3.2 3.2 0.00 0.86 0.86 71 989.2
20260505032109 21 91 0.0 0.0 0.00 0.86 0.86 70 989.3
20260505031606 21 84 1.6 3.2 0.00 0.86 0.86 70 989.4
20260505031103 21 221 1.6 3.2 0.00 0.86 0.86 70 989.1
20260505030600 21 217 1.6 4.8 0.00 0.86 0.86 69 989.1
20260505030055 21 186 4.8 8.0 0.00 0.86 0.86 68 989.1
20260505025551 21 104 3.2 3.2 0.00 0.86 0.86 69 989.1
20260505025051 21 125 3.2 4.8 0.00 0.86 0.86 68 989.2
20260505024547 21 187 1.6 1.6 0.00 0.86 0.86 68 989.2
20260505024045 21 162 3.2 4.8 0.00 0.86 0.86 69 989.2
20260505023542 21 121 3.2 3.2 0.00 0.86 0.86 70 988.8
20260505023039 21 124 3.2 3.2 0.00 0.86 0.86 71 989.0
20260505022537 21 155 4.8 8.0 0.00 0.86 0.86 69 988.6
20260505022034 21 222 8.0 9.7 0.00 0.86 0.86 68 988.6
20260505021530 21 83 4.8 4.8 0.00 0.86 0.86 70 988.6
20260505021027 21 92 4.8 9.7 0.00 0.86 0.86 70 988.4
20260505020526 21 145 3.2 4.8 0.00 0.86 0.86 71 988.5
20260505020024 21 133 4.8 8.0 0.00 0.86 0.86 70 988.3
20260505015521 20 212 3.2 4.8 0.00 0.86 0.86 70 988.2
20260505015018 21 170 6.4 8.0 0.00 0.86 0.86 70 988.2
20260505014515 21 77 4.8 8.0 0.00 0.86 0.86 70 988.2
20260505014012 21 80 1.6 1.6 0.00 0.86 0.86 71 988.3
20260505013509 21 237 3.2 4.8 0.00 0.86 0.86 70 988.1
20260505013006 20 97 0.0 1.6 0.00 0.86 0.86 72 988.1
20260505012504 20 177 3.2 3.2 0.00 0.86 0.86 74 988.0
20260505012001 20 89 3.2 4.8 0.00 0.86 0.86 74 988.1
20260505011456 20 109 3.2 3.2 0.00 0.86 0.86 75 987.9
20260505010954 20 203 3.2 4.8 0.00 0.86 0.86 75 988.2
20260505010449 20 126 3.2 4.8 0.00 0.86 0.86 78 988.2
20260505005945 20 92 0.0 1.6 0.00 0.86 0.86 78 988.2
20260505005442 20 71 1.6 1.6 0.00 0.86 0.86 79 988.0
20260505004940 18 83 0.0 0.0 0.00 0.86 0.86 84 988.3
20260505004436 18 103 1.6 3.2 0.00 0.86 0.86 91 988.1
20260505003933 18 58 0.0 0.0 0.00 0.86 0.86 92 988.2
20260505003431 18 146 0.0 1.6 0.18 0.86 0.86 93 988.4
20260505002927 18 75 0.0 0.0 0.18 0.86 0.86 93 988.2
20260505002423 18 44 0.0 0.0 0.00 0.84 0.84 91 988.2
20260505001922 18 49 0.0 0.0 1.19 0.84 0.84 88 988.2
20260505001419 20 26 1.6 3.2 1.68 0.84 0.84 83 988.3
20260505000916 22 69 1.6 3.2 0.79 0.69 0.69 73 987.9
20260505000414 23 226 4.8 8.0 0.00 0.56 0.56 61 987.2
20260504235910 23 192 1.6 3.2 0.00 0.56 0.56 60 987.3
20260504235408 23 99 3.2 3.2 0.00 0.56 0.56 60 987.6
20260504234903 23 93 1.6 4.8 0.00 0.56 0.56 57 987.3
20260504234401 23 96 3.2 3.2 0.00 0.56 0.56 58 987.5
20260504233858 23 214 6.4 11.3 0.00 0.56 0.56 57 987.7
20260504233353 23 191 3.2 4.8 0.00 0.56 0.56 57 987.7
20260504232850 23 64 1.6 1.6 0.00 0.56 0.56 58 987.8
20260504232348 23 140 3.2 3.2 0.00 0.56 0.56 60 987.6
20260504231844 23 50 4.8 8.0 0.00 0.56 0.56 59 987.7
20260504231341 23 170 3.2 3.2 0.00 0.56 0.56 60 988.1
20260504230837 23 104 0.0 1.6 0.00 0.56 0.56 60 988.3
20260504230335 23 58 3.2 4.8 0.00 0.56 0.56 61 988.4
20260504225833 24 183 6.4 9.7 0.00 0.56 0.56 59 988.3
20260504225329 24 279 1.6 3.2 0.00 0.56 0.56 62 988.3
20260504224827 24 174 1.6 3.2 0.00 0.56 0.56 61 988.4
20260504224324 24 18 1.6 3.2 0.00 0.56 0.56 62 988.7
20260504223821 25 159 3.2 8.0 0.00 0.56 0.56 60 988.5
20260504223316 25 95 1.6 1.6 0.00 0.56 0.56 61 988.5
20260504222813 24 127 1.6 3.2 0.00 0.56 0.56 62 988.5
20260504222310 24 221 1.6 3.2 0.00 0.56 0.56 62 988.6
20260504221808 24 175 1.6 3.2 0.00 0.56 0.56 63 988.8
20260504221304 24 250 3.2 4.8 0.00 0.56 0.56 63 988.5
20260504220801 24 127 4.8 4.8 0.00 0.56 0.56 62 988.4
20260504220258 24 123 0.0 1.6 0.00 0.56 0.56 62 988.7
20260504215756 24 123 1.6 3.2 0.00 0.56 0.56 63 988.7
20260504215252 24 178 0.0 1.6 0.00 0.56 0.56 64 988.8
20260504214748 23 117 4.8 8.0 0.00 0.56 0.56 63 988.8
20260504214244 23 274 4.8 4.8 0.00 0.56 0.56 62 988.9
20260504213741 23 200 3.2 3.2 0.00 0.56 0.56 61 988.6
20260504213237 23 92 1.6 3.2 0.00 0.56 0.56 64 988.6
20260504212735 23 71 3.2 3.2 0.00 0.56 0.56 65 988.6
20260504212231 22 120 6.4 12.9 0.00 0.56 0.56 64 988.8
20260504211729 22 243 8.0 9.7 0.00 0.56 0.56 66 988.7
20260504211225 22 133 9.7 14.5 0.00 0.56 0.56 67 988.5
20260504210722 22 39 0.0 1.6 0.00 0.56 0.56 67 988.9
20260504210219 22 253 3.2 8.0 0.00 0.56 0.56 70 988.6
20260504205716 22 212 4.8 8.0 0.00 0.56 0.56 69 989.0
20260504205214 22 188 4.8 8.0 0.00 0.56 0.56 69 989.3
20260504204712 22 106 3.2 3.2 0.00 0.56 0.56 71 989.3
20260504204210 21 172 4.8 8.0 0.00 0.56 0.56 71 989.5
20260504203709 21 197 6.4 9.7 0.00 0.56 0.56 71 989.5
20260504203206 21 206 1.6 3.2 0.00 0.56 0.56 71 989.4
20260504202700 21 74 3.2 3.2 0.00 0.56 0.56 72 989.4
20260504202158 20 277 1.6 3.2 0.00 0.56 0.56 75 989.4
20260504201655 20 95 3.2 4.8 0.00 0.56 0.56 74 989.3
20260504201152 20 168 0.0 1.6 0.00 0.56 0.56 76 989.2
20260504200649 19 137 4.8 8.0 0.00 0.56 0.56 78 989.3
20260504200146 19 62 1.6 3.2 0.00 0.56 0.56 79 989.4
20260504195642 19 106 1.6 1.6 0.00 0.56 0.56 80 989.8
20260504195138 18 74 1.6 3.2 0.00 0.56 0.56 80 989.7
20260504194635 18 190 0.0 3.2 0.00 0.56 0.56 82 990.1
20260504194131 18 159 3.2 3.2 0.00 0.56 0.56 84 990.5
20260504193627 18 122 3.2 3.2 0.00 0.56 0.56 85 990.4
20260504193126 18 127 3.2 3.2 0.00 0.56 0.56 86 990.7
20260504192623 17 167 4.8 4.8 0.00 0.56 0.56 88 990.9
20260504192121 17 170 4.8 4.8 0.30 0.56 0.56 89 991.4
20260504191620 17 109 4.8 4.8 0.43 0.56 0.56 89 991.5
20260504191115 18 141 4.8 4.8 0.13 0.51 0.51 86 991.9
20260504190612 17 184 6.4 8.0 0.18 0.48 0.48 88 991.8
20260504190108 18 103 4.8 4.8 0.36 0.48 0.48 88 991.4
20260504185605 18 79 1.6 1.6 0.18 0.46 0.46 86 991.8
20260504185101 18 80 1.6 1.6 0.00 0.43 0.43 85 992.1
20260504184557 18 71 0.0 0.0 0.00 0.43 0.43 81 992.7
20260504184052 18 57 0.0 0.0 0.00 0.43 0.43 80 992.9
20260504183550 19 58 0.0 0.0 0.00 0.43 0.43 79 992.7
20260504183048 20 46 0.0 0.0 0.00 0.43 0.43 76 992.5
20260504182545 20 44 0.0 0.0 0.00 0.43 0.43 75 992.6
20260504182042 20 286 4.8 4.8 0.00 0.43 0.43 72 992.1
20260504181539 20 49 1.6 1.6 0.00 0.43 0.43 73 991.7
20260504181037 20 177 1.6 1.6 0.00 0.43 0.43 72 991.6
20260504180536 20 57 1.6 1.6 0.00 0.43 0.43 72 991.5
20260504180034 20 241 3.2 3.2 0.00 0.43 0.43 71 991.4
20260504175531 21 258 4.8 4.8 0.00 0.43 0.43 70 991.2
20260504175028 22 114 1.6 1.6 0.00 0.43 0.43 68 990.6
20260504174526 22 285 3.2 4.8 0.00 0.43 0.43 68 990.3
20260504174022 20 200 6.4 9.7 0.00 0.43 0.43 70 990.1
20260504173519 20 175 3.2 3.2 0.00 0.43 0.43 73 990.3
20260504173017 20 101 3.2 3.2 0.00 0.43 0.43 71 990.1
20260504172513 20 73 4.8 8.0 0.00 0.43 0.43 72 991.1
20260504172009 20 222 3.2 3.2 0.00 0.43 0.43 72 991.5
20260504171506 20 83 1.6 3.2 0.00 0.43 0.43 71 991.3
20260504171003 21 255 3.2 3.2 0.00 0.43 0.43 70 991.2
20260504170459 21 253 3.2 4.8 0.00 0.43 0.43 71 990.9
20260504160419 20 110 3.2 4.8 0.00 0.43 0.43 65 992.5